COSMOS 2204 (GLONASS)

Satellite information

Favourite Embed

Satellite Type and Status

PAYLOADIN ORBIT

Key statistics

Satellite COSMOS 2204 (GLONASS) at a glance.

Uptime

12190

Days in orbit

Revolutions

≈ 2.1

Per day

Orbit

MEO

Medium Earth Orbit

Inclination

64.3

Latest

Satellite identification and parameters

Extended collection of information and parameters for COSMOS 2204 (GLONASS).

Object identification

Identified? True

Debris? False

Object name: COSMOS 2204 (GLONASS)

International designator: 1992-047B

Object number (NORAD): 22057

Object ID (CCSDS): 22057

Country: COMMONWEALTH OF INDEPENDENT STATES (CIS)

Current information (Y/N): Y

RCS size: LARGE

Orbital parameters

Period: 675.73 minutes

Inclination: 64.2845 deg

SMA: 25507.954 km

Apoapsis: 19170.564 km

Periapsis: 19089.075 km

RAAN: 308.9287 deg

Eccentricy: 0.00159733

Argument of periapsis: 339.6577 deg

Mean anomaly: 199.428 deg

Mean motion: 2.13102878 rev/day

Mean motion (dot): -0.00000053 rev/day2

B* drag term: 0.0 1/REarth

Two-line elements (TLE)

Creation date: Dec. 11, 2025, 10:54 a.m.

Reference frame: TEME

Reference center: EARTH

Epoch: Dec. 11, 2025, 1:39 a.m. UTC

TLE line 0: 0 COSMOS 2204 (GLONASS)

TLE line 1: 1 22057U 92047B 25345.06943170 -.00000053 00000-0 00000-0 0 9996

TLE line 2: 2 22057 64.2845 308.9287 0015973 339.6577 199.4280 2.13102878259527

Live tracking on map

Real-time ground track for satellite COSMOS 2204 (GLONASS).

In-orbit conjunctions

A list of the most updated potential collisions computed for object COSMOS 2204 (GLONASS).

Target Orbit TCA Probability of collision Miss distance Type
COSMOS 1555 (GLONASS) MEO 2025-09-10 10:45:07 TBA 4779.0 (m) PAYLOAD
COSMOS 1555 (GLONASS) MEO 2025-09-09 23:29:23 TBA 4697.0 (m) PAYLOAD

Associated space launch

GLONASS navigation satellites

COSMOS 2204 (GLONASS) was lifted into orbit during the mission ‘Proton | Uragan 48 to 50’, on board a Proton space rocket.

The launch took place on July 30, 1992, 1:59 a.m. from 81/23 (81L).

For more information about the launch, click the button.

Launch to space Proton | Uragan 48 to 50
Proton | Uragan 48 to 50

Agency: N/A

Status: Launch Successful

Launch date: July 30, 1992, 1:59 a.m. UTC

Rocket: Proton

Launch pad: 81/23 (81L)

Location: Baikonur Cosmodrome, Republic of Kazakhstan

...

Latest news about this satellite

There are no fresh news available about this satellite. Check back as we update our databases every day.


Newsletter sign-up

Weekly statistics, charts and insights to help you stay on top of the space industry.